DW2147 Weather Reports


Display with metric or nautical units.
time (UTC)temp
F
wind
direction
speed
MPH
gust
MPH
rain 1hr
in
rain 24hr
in
rain mn
in
humidity
%
barometer
mb
20260831103038 70 78 0.0 0.0 0.00 0.00 0.00 71 1020.0
20260831102532 70 78 0.0 0.0 0.00 0.00 0.00 71 1020.0
20260831102030 70 78 0.0 0.0 0.00 0.00 0.00 71 1020.0
20260831101532 70 78 0.0 0.0 0.00 0.00 0.00 71 1019.9
20260831101031 70 78 0.0 0.0 0.00 0.00 0.00 71 1019.9
20260831100529 70 78 0.0 0.0 0.00 0.00 0.00 71 1020.0
20260831100029 70 77 0.0 0.0 0.00 0.00 0.00 71 1020.0
20260831095524 70 77 0.0 0.0 0.00 0.00 0.00 71 1020.1
20260831095023 70 79 0.0 0.0 0.00 0.00 0.00 71 1020.0
20260831094531 70 79 0.0 0.0 0.00 0.00 0.00 71 1019.8
20260831094526 70 78 0.0 0.0 0.00 0.00 0.00 71 1020.0
20260831093523 70 78 0.0 0.0 0.00 0.00 0.00 71 1019.8
20260831093023 70 77 0.0 0.0 0.00 0.00 0.00 71 1019.8
20260831092517 70 78 0.0 0.0 0.00 0.00 0.00 71 1019.9
20260831092244 70 77 0.0 0.0 0.00 0.00 0.00 71 1019.9
20260831091744 70 77 0.0 0.0 0.00 0.00 0.00 70 1019.9
20260831091010 70 78 0.0 0.0 0.00 0.00 0.00 70 1020.2
20260831090741 70 78 0.0 0.0 0.00 0.00 0.00 70 1020.0
20260831090004 70 79 0.0 0.0 0.00 0.00 0.00 70 1020.0
20260831085505 70 78 0.0 0.0 0.00 0.00 0.00 70 1019.8
20260831085004 70 78 0.0 0.0 0.00 0.00 0.00 70 1019.8
20260831084505 70 79 0.0 0.0 0.00 0.00 0.00 70 1019.8
20260831084005 71 86 0.0 0.0 0.00 0.00 0.00 70 1019.8
20260831083507 71 76 0.0 0.0 0.00 0.00 0.00 70 1019.8
20260831083001 71 76 0.0 0.0 0.00 0.00 0.00 70 1019.7
20260831082500 71 76 0.0 0.0 0.00 0.00 0.00 70 1019.7
20260831082001 71 76 0.0 0.0 0.00 0.00 0.00 70 1019.5
20260831081501 71 76 0.0 0.0 0.00 0.00 0.00 70 1019.5
20260831081230 71 76 0.0 0.0 0.00 0.00 0.00 70 1019.5
20260831080459 71 76 0.0 0.0 0.00 0.00 0.00 70 1019.6
20260831075957 71 76 0.0 0.0 0.00 0.00 0.00 70 1019.6
20260831075454 71 76 0.0 0.0 0.00 0.00 0.00 70 1019.7
20260831075226 71 76 0.0 0.0 0.00 0.00 0.00 70 1019.6
20260831074455 71 76 0.0 0.0 0.00 0.00 0.00 70 1019.7
20260831073953 71 76 0.0 0.0 0.00 0.00 0.00 70 1019.7
20260831073453 71 76 0.0 0.0 0.00 0.00 0.00 70 1019.9
20260831072947 71 76 0.0 0.0 0.00 0.00 0.00 70 1019.8
20260831072445 71 76 0.0 0.0 0.00 0.00 0.00 69 1019.8
20260831071943 71 77 0.0 0.0 0.00 0.00 0.00 69 1019.8
20260831071441 71 80 0.0 0.0 0.00 0.00 0.00 69 1020.0
20260831070941 72 78 0.0 0.0 0.00 0.00 0.00 69 1020.0
20260831070436 72 78 0.0 0.0 0.00 0.00 0.00 69 1020.0
20260831065935 72 76 0.0 0.0 0.00 0.00 0.00 70 1020.1
20260831065706 72 76 0.0 0.0 0.00 0.00 0.00 69 1020.1
20260831064937 72 77 0.0 0.0 0.00 0.00 0.00 69 1020.2
20260831064435 72 78 0.0 0.0 0.00 0.00 0.00 69 1020.3
20260831063933 72 76 0.0 0.0 0.00 0.00 0.00 69 1020.3
20260831063429 72 86 0.0 0.0 0.00 0.00 0.00 70 1020.3
20260831062927 72 86 0.0 0.0 0.00 0.00 0.00 70 1020.2
20260831062701 72 76 0.0 0.0 0.00 0.00 0.00 70 1020.2
20260831061927 73 77 0.0 0.0 0.00 0.00 0.00 70 1020.2
20260831061425 73 76 0.0 0.0 0.00 0.00 0.00 70 1020.2
20260831060925 73 76 0.0 0.0 0.00 0.00 0.00 70 1020.3
20260831060419 73 0 0.0 0.0 0.00 0.00 0.00 70 1020.4
20260831055921 73 75 0.0 0.0 0.00 0.00 0.00 70 1020.2
20260831055648 73 75 0.0 0.0 0.00 0.00 0.00 70 1020.2
20260831054917 73 76 0.0 3.0 0.00 0.00 0.00 70 1020.2
20260831054417 73 76 0.0 3.0 0.00 0.00 0.00 70 1020.3
20260831053914 73 15 0.0 0.0 0.00 0.00 0.00 70 1020.4
20260831053412 73 14 0.0 0.0 0.00 0.00 0.00 70 1020.6
20260831052910 73 13 0.0 0.0 0.00 0.00 0.00 70 1020.7
20260831052410 74 16 0.0 0.0 0.00 0.00 0.00 70 1020.6
20260831051908 74 15 0.0 0.0 0.00 0.00 0.00 70 1020.6
20260831051407 74 16 0.0 0.0 0.00 0.00 0.00 70 1020.8
20260831050908 74 14 0.0 3.0 0.00 0.00 0.00 70 1020.8
20260831050403 74 15 1.0 5.0 0.00 0.00 0.00 70 1020.8
20260831045903 74 14 2.0 5.0 0.00 0.00 0.00 70 1020.8
20260831045634 75 0 1.0 5.0 0.00 0.00 0.00 71 1020.8
20260831045135 75 0 1.0 3.0 0.00 0.00 0.00 71 1020.8
20260831044634 75 0 2.0 9.0 0.00 0.00 0.00 71 1020.6
20260831043905 75 0 3.0 9.0 0.00 0.00 0.00 71 1020.7
20260831043359 75 0 3.0 8.0 0.00 0.00 0.00 70 1020.6
20260831043131 75 0 2.0 8.0 0.00 0.00 0.00 70 1020.5
20260831042400 75 0 0.0 4.0 0.00 0.00 0.00 70 1020.5
20260831041859 75 0 0.0 2.0 0.00 0.00 0.00 70 1020.6
20260831041400 75 0 1.0 2.0 0.00 0.00 0.00 70 1020.6
20260831040906 75 0 1.0 3.0 0.00 0.00 0.00 71 1020.7
20260831040901 75 0 1.0 3.0 0.00 0.00 0.00 70 1020.6
20260831040356 75 0 1.0 3.0 0.00 0.00 0.00 70 1020.7
20260831035855 75 0 1.0 3.0 0.00 0.00 0.00 70 1020.7
20260831034847 75 0 2.0 5.0 0.00 0.00 0.00 71 1020.6
20260831034347 76 0 2.0 5.0 0.00 0.00 0.00 71 1020.7
20260831033847 76 0 2.0 4.0 0.00 0.00 0.00 71 1020.8
20260831033347 76 0 1.0 4.0 0.00 0.00 0.00 70 1020.8
20260831032846 76 0 1.0 3.0 0.00 0.00 0.00 70 1021.0
20260831032347 76 0 1.0 4.0 0.00 0.00 0.00 70 1021.0
20260831031843 76 0 1.0 4.0 0.00 0.00 0.00 71 1020.9
20260831031342 76 0 0.0 0.0 0.00 0.00 0.00 71 1021.0
20260831030840 76 163 0.0 0.0 0.00 0.00 0.00 70 1021.2
20260831030340 76 163 0.0 0.0 0.00 0.00 0.00 70 1021.2
20260831025841 77 163 0.0 0.0 0.00 0.00 0.00 69 1021.2
20260831025338 77 163 0.0 0.0 0.00 0.00 0.00 69 1021.2
20260831024838 77 163 0.0 0.0 0.00 0.00 0.00 69 1021.1
20260831024334 77 163 0.0 0.0 0.00 0.00 0.00 69 1021.1
20260831023834 77 163 0.0 0.0 0.00 0.00 0.00 70 1021.1
20260831023606 77 163 0.0 0.0 0.00 0.00 0.00 70 1021.0
20260831023106 77 162 0.0 0.0 0.00 0.00 0.00 70 1021.0
20260831022608 77 0 0.0 0.0 0.00 0.00 0.00 69 1021.1
20260831021838 77 0 0.0 0.0 0.00 0.00 0.00 70 1021.1
20260831021333 77 163 0.0 0.0 0.00 0.00 0.00 69 1020.9
20260831021101 77 0 0.0 0.0 0.00 0.00 0.00 69 1020.8
20260831020329 78 0 0.0 0.0 0.00 0.00 0.00 69 1020.7
20260831015830 78 0 0.0 2.0 0.00 0.00 0.00 69 1020.7
20260831015601 78 163 0.0 3.0 0.00 0.00 0.00 69 1020.7
20260831014830 78 0 0.0 3.0 0.00 0.00 0.00 69 1020.9
20260831014326 78 0 0.0 0.0 0.00 0.00 0.00 68 1020.8
20260831013826 78 0 0.0 0.0 0.00 0.00 0.00 68 1020.8
20260831013325 78 0 0.0 0.0 0.00 0.00 0.00 68 1020.8
20260831012826 78 0 0.0 1.0 0.00 0.00 0.00 68 1020.9
20260831012325 78 0 0.0 3.0 0.00 0.00 0.00 68 1020.8
20260831011827 78 0 1.0 3.0 0.00 0.00 0.00 68 1020.8
20260831011321 78 0 1.0 3.0 0.00 0.00 0.00 68 1020.9
20260831010821 78 0 0.0 2.0 0.00 0.00 0.00 67 1020.7
20260831010321 78 0 1.0 4.0 0.00 0.00 0.00 67 1020.6
20260831005821 78 0 2.0 4.0 0.00 0.00 0.00 67 1020.4
20260831005321 79 0 1.0 4.0 0.00 0.00 0.00 67 1020.3
20260831004819 79 0 0.0 3.0 0.00 0.00 0.00 67 1020.3
20260831004320 79 0 0.0 3.0 0.00 0.00 0.00 67 1020.2
20260831003819 79 0 0.0 3.0 0.00 0.00 0.00 67 1020.1
20260831003320 79 0 0.0 1.0 0.00 0.00 0.00 67 1020.1
20260831002813 79 0 1.0 2.0 0.00 0.00 0.00 66 1019.8
20260831002315 79 192 2.0 3.0 0.00 0.00 0.00 66 1019.8
20260831001813 79 0 2.0 4.0 0.00 0.00 0.00 66 1019.7
20260831001311 79 0 2.0 4.0 0.00 0.00 0.00 65 1019.7
20260831000812 80 0 2.0 4.0 0.00 0.00 0.00 66 1019.5
20260831000545 80 0 3.0 5.0 0.00 0.00 0.00 65 1019.6
20260830235809 81 0 2.0 5.0 0.00 0.00 0.00 65 1019.5
20260830235306 82 0 0.0 4.0 0.00 0.00 0.00 61 1019.4
20260830234806 82 0 0.0 2.0 0.00 0.00 0.00 60 1019.5
20260830234537 83 0 0.0 0.0 0.00 0.00 0.00 60 1019.3
20260830234035 83 0 0.0 0.0 0.00 0.00 0.00 59 1019.2
20260830233307 83 0 0.0 2.0 0.00 0.00 0.00 57 1019.1
20260830232757 84 0 0.0 2.0 0.00 0.00 0.00 56 1019.0
20260830232258 84 0 0.0 0.0 0.00 0.00 0.00 57 1019.0
20260830231758 84 0 0.0 2.0 0.00 0.00 0.00 56 1018.9
20260830231258 85 311 1.0 3.0 0.00 0.00 0.00 55 1018.9
20260830230756 85 311 1.0 3.0 0.00 0.00 0.00 54 1018.8
20260830230256 85 0 1.0 3.0 0.00 0.00 0.00 54 1018.9
20260830225751 85 0 0.0 3.0 0.00 0.00 0.00 54 1019.0
20260830225251 85 294 0.0 3.0 0.00 0.00 0.00 53 1019.0
20260830224751 85 0 0.0 0.0 0.00 0.00 0.00 55 1019.1
20260830224251 86 286 1.0 3.0 0.00 0.00 0.00 55 1019.1
20260830223748 86 285 1.0 3.0 0.00 0.00 0.00 54 1019.2
20260830223247 86 265 0.0 1.0 0.00 0.00 0.00 55 1019.2
20260830222742 86 265 0.0 2.0 0.00 0.00 0.00 54 1019.2
20260830222512 86 265 1.0 4.0 0.00 0.00 0.00 52 1019.2
20260830221738 86 265 1.0 4.0 0.00 0.00 0.00 52 1019.1
20260830221236 86 0 1.0 3.0 0.00 0.00 0.00 51 1019.2
20260830220736 86 303 1.0 4.0 0.00 0.00 0.00 53 1019.2
20260830220233 86 0 1.0 5.0 0.00 0.00 0.00 53 1019.2
20260830215732 87 0 1.0 5.0 0.00 0.00 0.00 51 1019.2
20260830215229 87 0 2.0 8.0 0.00 0.00 0.00 50 1019.3
20260830214730 87 253 3.0 8.0 0.00 0.00 0.00 50 1019.4
20260830214502 87 298 3.0 8.0 0.00 0.00 0.00 49 1019.2
20260830213732 88 318 3.0 8.0 0.00 0.00 0.00 49 1019.3
20260830213456 88 0 2.0 5.0 0.00 0.00 0.00 50 1019.3
20260830212723 88 27 1.0 6.0 0.00 0.00 0.00 51 1019.2
20260830212224 88 65 3.0 6.0 0.00 0.00 0.00 48 1019.3
20260830211724 88 0 3.0 6.0 0.00 0.00 0.00 49 1019.3
20260830211224 88 0 4.0 10.0 0.00 0.00 0.00 50 1019.3
20260830210724 88 0 4.0 10.0 0.00 0.00 0.00 49 1019.3
20260830210217 87 0 4.0 11.0 0.00 0.00 0.00 49 1019.3
20260830205718 87 308 3.0 11.0 0.00 0.00 0.00 51 1019.3
20260830205220 87 92 3.0 9.0 0.00 0.00 0.00 52 1019.3
20260830204718 87 0 5.0 12.0 0.00 0.00 0.00 51 1019.4
20260830204218 88 0 5.0 12.0 0.00 0.00 0.00 50 1019.4
20260830203718 88 0 4.0 11.0 0.00 0.00 0.00 51 1019.6
20260830203215 88 0 4.0 11.0 0.00 0.00 0.00 51 1019.6
20260830202714 88 0 4.0 10.0 0.00 0.00 0.00 49 1019.6
20260830202213 88 0 3.0 10.0 0.00 0.00 0.00 51 1019.7
20260830201714 88 0 3.0 13.0 0.00 0.00 0.00 49 1019.6
20260830201212 88 0 4.0 13.0 0.00 0.00 0.00 48 1019.7
20260830200715 89 0 3.0 8.0 0.00 0.00 0.00 49 1019.7
20260830200440 88 11 2.0 8.0 0.00 0.00 0.00 49 1019.8
20260830195709 88 0 2.0 6.0 0.00 0.00 0.00 51 1019.8
20260830195442 88 0 2.0 7.0 0.00 0.00 0.00 48 1019.8
20260830194708 88 19 2.0 7.0 0.00 0.00 0.00 49 1019.8
20260830194206 88 312 2.0 5.0 0.00 0.00 0.00 49 1019.9
20260830193938 88 238 3.0 9.0 0.00 0.00 0.00 51 1020.0
20260830193200 88 0 3.0 11.0 0.00 0.00 0.00 50 1020.1
20260830192700 87 0 4.0 11.0 0.00 0.00 0.00 51 1020.2
20260830192201 87 0 4.0 10.0 0.00 0.00 0.00 50 1020.2
20260830191704 87 17 5.0 11.0 0.00 0.00 0.00 53 1020.4
20260830191700 87 329 4.0 10.0 0.00 0.00 0.00 51 1020.3
20260830190700 87 19 6.0 12.0 0.00 0.00 0.00 54 1020.5
20260830190154 87 0 5.0 16.0 0.00 0.00 0.00 52 1020.5
20260830185652 87 317 5.0 16.0 0.00 0.00 0.00 52 1020.5
20260830185154 87 0 5.0 10.0 0.00 0.00 0.00 51 1020.6
20260830184653 87 0 5.0 11.0 0.00 0.00 0.00 51 1020.6
20260830184153 87 0 4.0 11.0 0.00 0.00 0.00 51 1020.7
20260830183656 87 0 2.0 9.0 0.00 0.00 0.00 52 1020.8
20260830183152 86 0 4.0 8.0 0.00 0.00 0.00 54 1020.8
20260830182920 85 0 5.0 11.0 0.00 0.00 0.00 52 1021.0
20260830182148 85 0 7.0 13.0 0.00 0.00 0.00 51 1021.0
20260830181645 86 0 7.0 13.0 0.00 0.00 0.00 52 1021.1
20260830181146 86 0 6.0 15.0 0.00 0.00 0.00 51 1021.0
20260830180648 86 333 5.0 15.0 0.00 0.00 0.00 53 1021.1
20260830180140 85 0 5.0 11.0 0.00 0.00 0.00 53 1021.1
20260830175638 85 0 5.0 10.0 0.00 0.00 0.00 54 1021.2
20260830175137 85 0 5.0 10.0 0.00 0.00 0.00 54 1021.2
20260830174636 85 0 3.0 9.0 0.00 0.00 0.00 55 1021.4
20260830174136 85 0 5.0 11.0 0.00 0.00 0.00 57 1021.5
20260830173635 85 0 5.0 15.0 0.00 0.00 0.00 55 1021.5
20260830173133 85 0 4.0 15.0 0.00 0.00 0.00 57 1021.6
20260830172634 85 0 4.0 10.0 0.00 0.00 0.00 56 1021.6
20260830172131 85 0 3.0 10.0 0.00 0.00 0.00 56 1021.7
20260830171902 85 0 3.0 9.0 0.00 0.00 0.00 56 1021.7
20260830171132 85 0 2.0 9.0 0.00 0.00 0.00 57 1021.8
20260830170902 85 0 2.0 10.0 0.00 0.00 0.00 58 1021.8
20260830170127 85 0 3.0 10.0 0.00 0.00 0.00 58 1021.9
20260830165627 85 0 3.0 7.0 0.00 0.00 0.00 58 1021.8
20260830165128 85 0 2.0 7.0 0.00 0.00 0.00 58 1021.9
20260830164626 85 226 2.0 9.0 0.00 0.00 0.00 59 1021.8
20260830164128 85 0 3.0 9.0 0.00 0.00 0.00 59 1021.9
20260830163628 85 0 3.0 11.0 0.00 0.00 0.00 58 1021.9
20260830163122 85 0 3.0 11.0 0.00 0.00 0.00 59 1021.8
20260830162624 85 0 4.0 10.0 0.00 0.00 0.00 59 1021.9
20260830162124 84 230 4.0 10.0 0.00 0.00 0.00 59 1021.9
20260830161854 85 0 3.0 10.0 0.00 0.00 0.00 61 1022.0
20260830161124 85 0 3.0 10.0 0.00 0.00 0.00 60 1022.0
20260830160624 85 0 3.0 8.0 0.00 0.00 0.00 62 1022.0
20260830160118 84 0 3.0 10.0 0.00 0.00 0.00 62 1022.0
20260830155850 85 0 2.0 10.0 0.00 0.00 0.00 61 1022.0
20260830155120 84 0 3.0 8.0 0.00 0.00 0.00 64 1022.0
20260830154619 84 154 4.0 9.0 0.00 0.00 0.00 65 1022.0
20260830154119 83 0 4.0 10.0 0.00 0.00 0.00 64 1022.0
20260830153620 83 0 5.0 10.0 0.00 0.00 0.00 65 1022.0
20260830153120 82 0 6.0 12.0 0.00 0.00 0.00 62 1022.0
20260830153115 82 0 6.0 12.0 0.00 0.00 0.00 63 1021.9
20260830152116 83 0 4.0 9.0 0.00 0.00 0.00 63 1022.0
20260830151615 82 0 4.0 9.0 0.00 0.00 0.00 65 1022.0
20260830151115 82 0 4.0 10.0 0.00 0.00 0.00 63 1022.2
20260830150615 82 0 5.0 10.0 0.00 0.00 0.00 64 1022.2
20260830150114 82 0 5.0 10.0 0.00 0.00 0.00 64 1022.2
20260830145613 81 0 5.0 10.0 0.00 0.00 0.00 64 1022.2
20260830145342 81 0 4.0 10.0 0.00 0.00 0.00 64 1022.2
20260830144611 80 0 5.0 10.0 0.00 0.00 0.00 64 1022.2
20260830144113 80 0 5.0 10.0 0.00 0.00 0.00 64 1022.2
20260830143609 80 0 5.0 10.0 0.00 0.00 0.00 65 1022.2
20260830143107 79 0 5.0 10.0 0.00 0.00 0.00 64 1022.1
20260830142606 79 0 4.0 9.0 0.00 0.00 0.00 65 1022.0
20260830142107 78 0 5.0 10.0 0.00 0.00 0.00 65 1021.9
20260830141608 78 0 4.0 10.0 0.00 0.00 0.00 65 1021.8
20260830141107 77 0 4.0 10.0 0.00 0.00 0.00 65 1021.8
20260830140837 77 0 5.0 10.0 0.00 0.00 0.00 64 1021.9
20260830140100 77 0 6.0 11.0 0.00 0.00 0.00 64 1021.8
20260830135600 77 0 6.0 12.0 0.00 0.00 0.00 63 1021.8
20260830135100 77 0 4.0 12.0 0.00 0.00 0.00 63 1021.9
20260830134602 76 0 3.0 9.0 0.00 0.00 0.00 62 1021.9
20260830134059 75 0 4.0 10.0 0.00 0.00 0.00 63 1021.9
20260830133831 74 0 3.0 10.0 0.00 0.00 0.00 63 1021.8
20260830133321 74 0 2.0 6.0 0.00 0.00 0.00 64 1021.9
20260830132549 73 0 0.0 4.0 0.00 0.00 0.00 66 1021.8
20260830132047 72 0 0.0 0.0 0.00 0.00 0.00 68 1021.8
20260830131546 71 147 0.0 0.0 0.00 0.00 0.00 69 1021.8
20260830131046 70 0 0.0 0.0 0.00 0.00 0.00 70 1021.8
20260830130537 70 0 0.0 0.0 0.00 0.00 0.00 70 1021.9
20260830130035 70 0 0.0 0.0 0.00 0.00 0.00 70 1021.9
20260830125533 69 0 0.0 0.0 0.00 0.00 0.00 71 1022.0
20260830125031 69 0 0.0 0.0 0.00 0.00 0.00 71 1022.0
20260830124533 69 0 0.0 0.0 0.00 0.00 0.00 71 1021.9
20260830124256 69 0 0.0 0.0 0.00 0.00 0.00 72 1021.9
20260830123523 68 0 0.0 0.0 0.00 0.00 0.00 72 1021.9
20260830123252 68 0 0.0 0.0 0.00 0.00 0.00 72 1021.9
20260830122523 67 0 0.0 0.0 0.00 0.00 0.00 72 1022.0
20260830122519 67 0 0.0 0.0 0.00 0.00 0.00 72 1021.9
20260830121512 67 0 0.0 0.0 0.00 0.00 0.00 72 1022.1
20260830121011 67 0 0.0 0.0 0.00 0.00 0.00 72 1022.0
20260830120509 67 0 0.0 2.0 0.00 0.00 0.00 72 1022.1
20260830120007 67 0 0.0 2.0 0.00 0.00 0.00 72 1021.9
20260830115510 67 0 0.0 0.0 0.00 0.00 0.00 72 1021.9
20260830115001 66 0 0.0 0.0 0.00 0.00 0.00 72 1021.9
20260830114459 66 0 0.0 0.0 0.00 0.00 0.00 72 1021.9
20260830113957 66 0 0.0 0.0 0.00 0.00 0.00 72 1021.9
20260830113455 66 0 0.0 0.0 0.00 0.00 0.00 72 1021.9
20260830112957 66 0 0.0 0.0 0.00 0.00 0.00 72 1021.8
20260830112449 66 0 0.0 0.0 0.00 0.00 0.00 72 1021.9
20260830111947 66 0 0.0 0.0 0.00 0.00 0.00 72 1021.9
20260830111445 66 0 0.0 0.0 0.00 0.00 0.00 72 1021.8
20260830111215 66 0 0.0 0.0 0.00 0.00 0.00 72 1021.8
20260830110446 66 0 0.0 0.0 0.00 0.00 0.00 72 1021.8
20260830105941 66 0 0.0 0.0 0.00 0.00 0.00 72 1021.7
20260830105443 66 0 0.0 0.0 0.00 0.00 0.00 72 1021.6
20260830105439 66 0 0.0 0.0 0.00 0.00 0.00 72 1021.6
20260830104439 66 0 0.0 0.0 0.00 0.00 0.00 71 1021.6
20260830104209 66 0 0.0 0.0 0.00 0.00 0.00 71 1021.6
20260830103436 66 0 0.0 0.0 0.00 0.00 0.00 71 1021.6